{"data":{"norad_id":66161,"epoch":"2026-05-25T00:27:15.037056Z","epoch_age_seconds":73368,"freshness":"FRESH","line1":"1 66161U 25240R   26145.01892404  .00025850  00000+0  88098-3 0  9994","line2":"2 66161  53.1579  68.3545 0000938 104.0125 256.0980 15.30231873 33678","mean_motion":15.30231873,"eccentricity":9.38e-5,"inclination_deg":53.1579,"raan_deg":68.3545,"arg_perigee_deg":104.0125,"mean_anomaly_deg":256.098,"bstar":0.00088098,"rev_number":3367,"period_min":94.103385598478,"perigee_km":474.47706854073,"apogee_km":475.76273953592,"semimajor_km":6853.2569040383,"source":"CELESTRAK","updated_at":"2026-05-25T13:38:21.071980Z"}}